Location: Ago
(8.4667°N, 4.4167°E)
Time: 05:26:12
(UTC+00:00)

Cosmos 1302 Rocket - Pass Details

Date: 06 June 2020
Orbit: 757 x 776 km, 74.0° (Epoch: 05 July)

Event Time Altitude Azimuth Distance (km) Brightness Sun altitude
Exits shadow 19:38:02 54° 100° (E) 929 4.0 -22.8°
Drops below altitude 10° 19:43:07 10° 25° (NNE) 2,315 6.5 -23.9°
Sets 19:45:32 0° 21° (NNE) 3,242 7.4 -24.5°
